Flag for U.S.A. Weather past 2 weeks in Greenville, South Carolina, U.S.A.

Now
93 °F

Sunny.


Feels Like: 90 °F
Forecast: 71 / 91 °F
Wind: 7 mph from North

Location: Greenville Downtown Airport

Current Time: Aug 1, 2015 at 7:05:14 PM

Latest Report: Aug 1, 2015 at 5:53 PM


Visibility: 10 mi

Pressure: 29.90 "Hg

Humidity: 21%

Dew point: 48 °F

Location of GreenvilleLocation

Historic Weather in Greenville — Graph

°F

Greenville temperature yesterday

Maximum temperature yesterday: 91 °F (at 4:53 PM)
Minimum temperature yesterday: 77 °F (at 5:53 AM)
Average temperature yesterday: 83 °F

Past Weeks' High & Low Weather Summary

 TemperatureHumidityPressure
High96 °F (Jul 30, 4:53 PM)91% (Jul 19, 2:53 AM)30.08 "Hg (Jul 19, 2:53 AM)
Low72 °F (Jul 19, 2:53 AM)24% (Aug 1, 4:53 PM)29.74 "Hg (Jul 21, 5:53 PM)
Average83 °F61%29.94 "Hg
* Reported Jul 17 4:53 PM — Aug 1 4:53 PM, Greenville, Weather by CustomWeather, © 2015

Note: Actual official high and low records may vary slightly from our data, if they occured in-between our weather recording intervals... More about our weather records

Advertising

Greenville weather history for previous 24 hours

 ConditionsComfort  
Time TempWeatherWind HumidityBarometerVisibility
4:53 PM
Sat, Aug 1
93 °FSunny.8 mph24%29.90 "Hg10 mi
3:53 PM91 °FSunny.3 mph26%29.91 "Hg10 mi
2:53 PM91 °FSunny.6 mph30%29.93 "Hg10 mi
1:53 PM90 °FSunny.No wind31%29.96 "Hg10 mi
12:53 PM89 °FSunny.12 mph30%29.97 "Hg10 mi
11:53 AM88 °FSunny.8 mph35%29.98 "Hg10 mi
10:53 AM86 °FSunny.12 mph40%29.98 "Hg10 mi
9:53 AM81 °FBroken clouds.6 mph47%29.99 "Hg10 mi
8:53 AM79 °FScattered clouds.8 mph50%29.98 "Hg10 mi
7:53 AM76 °FSunny.8 mph54%29.96 "Hg10 mi
6:53 AM73 °FPassing clouds.5 mph62%29.96 "Hg10 mi
5:53 AM73 °FClear.7 mph62%29.94 "Hg10 mi
4:53 AM75 °FClear.6 mph55%29.95 "Hg10 mi
3:53 AM76 °FPassing clouds.7 mph56%29.94 "Hg10 mi
2:53 AM78 °FOvercast.5 mph52%29.95 "Hg10 mi
1:53 AM78 °FPartly cloudy.9 mph52%29.96 "Hg10 mi
12:53 AM80 °FPassing clouds.7 mph47%29.96 "Hg10 mi
11:53 PM
Fri, Jul 31
81 °FMostly cloudy.10 mph45%29.96 "Hg10 mi
10:53 PM82 °FOvercast.8 mph44%29.97 "Hg10 mi
9:53 PM83 °FPassing clouds.9 mph41%29.95 "Hg10 mi
8:53 PM86 °FPartly sunny.10 mph46%29.92 "Hg10 mi
7:53 PM87 °FSunny.3 mph45%29.91 "Hg10 mi
Weather by CustomWeather, © 2015

See weather overviewHow to use our weather pages